Location: Beuerbach
(48.1459°N, 10.9174°E)
Time: 00:26:18
(UTC+00:00)

Meteor 1-21 - Pass Details

Date: 08 August 2024
Orbit: 845 x 885 km, 81.2° (Epoch: 09 September)

Event Time Altitude Azimuth Distance (km) Brightness Sun altitude
Rises 00:45:30 0° 348° (NNW) 3,418 8.2 -23.2°
Reaches altitude 10° 00:47:55 10° 348° (NNW) 2,478 7.4 -23.0°
Maximum altitude 00:53:33 90° 278° (W) 854 4.1 -22.6°
Enters shadow 00:55:24 45° 170° (S) 1,149 4.5 -22.5°
